owner,sensor,date,latitude,longitude,air_temperature,qcFlag 
DISL,ioos:station:DISL:PPTA:1,2013-05-01T00:00:00Z,30.2791,-87.5561,22.71,1111122 
DISL,ioos:station:DISL:PPTA:1,2013-05-01T00:30:00Z,30.2791,-87.5561,22.58,1111122 
DISL,ioos:station:DISL:PPTA:1,2013-05-01T01:00:00Z,30.2791,-87.5561,22.72,1111122 
DISL,ioos:station:DISL:PPTA:1,2013-05-01T01:30:00Z,30.2791,-87.5561,22.69,1111122 
DISL,ioos:station:DISL:PPTA:1,2013-05-01T02:00:00Z,30.2791,-87.5561,22.72,1111122 
DISL,ioos:station:DISL:PPTA:1,2013-05-01T02:30:00Z,30.2791,-87.5561,22.79,1111122 
DISL,ioos:station:DISL:PPTA:1,2013-05-01T03:00:00Z,30.2791,-87.5561,22.72,1111122 
DISL,ioos:station:DISL:PPTA:1,2013-05-01T03:30:00Z,30.2791,-87.5561,22.76,1111122 
DISL,ioos:station:DISL:PPTA:1,2013-05-01T04:00:00Z,30.2791,-87.5561,22.66,1111122 
DISL,ioos:station:DISL:PPTA:1,2013-05-01T04:30:00Z,30.2791,-87.5561,22.59,1111122 
DISL,ioos:station:DISL:PPTA:1,2013-05-01T05:00:00Z,30.2791,-87.5561,22.49,1111122 
DISL,ioos:station:DISL:PPTA:1,2013-05-01T05:30:00Z,30.2791,-87.5561,21.67,1111122 
DISL,ioos:station:DISL:PPTA:1,2013-05-01T06:00:00Z,30.2791,-87.5561,21.67,1111122 
DISL,ioos:station:DISL:PPTA:1,2013-05-01T06:30:00Z,30.2791,-87.5561,21.84,1111122 
DISL,ioos:station:DISL:PPTA:1,2013-05-01T07:00:00Z,30.2791,-87.5561,22.01,1111122 
DISL,ioos:station:DISL:PPTA:1,2013-05-01T07:30:00Z,30.2791,-87.5561,21.67,1111122 
DISL,ioos:station:DISL:PPTA:1,2013-05-01T08:00:00Z,30.2791,-87.5561,22.15,1111122 
DISL,ioos:station:DISL:PPTA:1,2013-05-01T08:30:00Z,30.2791,-87.5561,22.18,1111122 
DISL,ioos:station:DISL:PPTA:1,2013-05-01T09:00:00Z,30.2791,-87.5561,22.49,1111122 
DISL,ioos:station:DISL:PPTA:1,2013-05-01T09:30:00Z,30.2791,-87.5561,22.35,1111122 
DISL,ioos:station:DISL:PPTA:1,2013-05-01T10:00:00Z,30.2791,-87.5561,22.63,1111122 
DISL,ioos:station:DISL:PPTA:1,2013-05-01T10:30:00Z,30.2791,-87.5561,22.32,1111122 
DISL,ioos:station:DISL:PPTA:1,2013-05-01T11:00:00Z,30.2791,-87.5561,22.46,1111122 
DISL,ioos:station:DISL:PPTA:1,2013-05-01T11:30:00Z,30.2791,-87.5561,22.53,1111122 
DISL,ioos:station:DISL:PPTA:1,2013-05-01T12:00:00Z,30.2791,-87.5561,22.42,1111122 
DISL,ioos:station:DISL:PPTA:1,2013-05-01T12:30:00Z,30.2791,-87.5561,22.46,1111122 
DISL,ioos:station:DISL:PPTA:1,2013-05-01T13:00:00Z,30.2791,-87.5561,22.49,1111122 
DISL,ioos:station:DISL:PPTA:1,2013-05-01T13:30:00Z,30.2791,-87.5561,22.42,1111122 
DISL,ioos:station:DISL:PPTA:1,2013-05-01T14:00:00Z,30.2791,-87.5561,22.42,1111122 
DISL,ioos:station:DISL:PPTA:1,2013-05-01T14:30:00Z,30.2791,-87.5561,22.68,1111122 
DISL,ioos:station:DISL:PPTA:1,2013-05-01T15:00:00Z,30.2791,-87.5561,23.02,1111122 
DISL,ioos:station:DISL:PPTA:1,2013-05-01T15:30:00Z,30.2791,-87.5561,22.71,1111122 
DISL,ioos:station:DISL:PPTA:1,2013-05-01T16:00:00Z,30.2791,-87.5561,22.67,1111122 
DISL,ioos:station:DISL:PPTA:1,2013-05-01T16:30:00Z,30.2791,-87.5561,22.33,1111122 
DISL,ioos:station:DISL:PPTA:1,2013-05-01T17:00:00Z,30.2791,-87.5561,22.03,1111122 
DISL,ioos:station:DISL:PPTA:1,2013-05-01T17:30:00Z,30.2791,-87.5561,22.1,1111122 
DISL,ioos:station:DISL:PPTA:1,2013-05-01T18:00:00Z,30.2791,-87.5561,22.21,1111122 
DISL,ioos:station:DISL:PPTA:1,2013-05-01T18:30:00Z,30.2791,-87.5561,22.04,1111122 
DISL,ioos:station:DISL:PPTA:1,2013-05-01T19:00:00Z,30.2791,-87.5561,21.81,1111122 
DISL,ioos:station:DISL:PPTA:1,2013-05-01T19:30:00Z,30.2791,-87.5561,21.74,1111122 
DISL,ioos:station:DISL:PPTA:1,2013-05-01T20:00:00Z,30.2791,-87.5561,21.57,1111122 
DISL,ioos:station:DISL:PPTA:1,2013-05-01T20:30:00Z,30.2791,-87.5561,21.67,1111122 
DISL,ioos:station:DISL:PPTA:1,2013-05-01T21:00:00Z,30.2791,-87.5561,21.71,1111122 
DISL,ioos:station:DISL:PPTA:1,2013-05-01T21:30:00Z,30.2791,-87.5561,21.88,1111122 
DISL,ioos:station:DISL:PPTA:1,2013-05-01T22:00:00Z,30.2791,-87.5561,21.5,1111122 
DISL,ioos:station:DISL:PPTA:1,2013-05-01T22:30:00Z,30.2791,-87.5561,21.54,1111122 
DISL,ioos:station:DISL:PPTA:1,2013-05-01T23:00:00Z,30.2791,-87.5561,21.64,1111122 
DISL,ioos:station:DISL:PPTA:1,2013-05-01T23:30:00Z,30.2791,-87.5561,21.26,1111122 
DISL,ioos:station:DISL:PPTA:1,2013-05-02T00:00:00Z,30.2791,-87.5561,21.19,1111122 
DISL,ioos:station:DISL:PPTA:1,2013-05-02T00:30:00Z,30.2791,-87.5561,21.33,1111122 
DISL,ioos:station:DISL:PPTA:1,2013-05-02T01:00:00Z,30.2791,-87.5561,21.67,1111122 
DISL,ioos:station:DISL:PPTA:1,2013-05-02T01:30:00Z,30.2791,-87.5561,21.88,1111122 
DISL,ioos:station:DISL:PPTA:1,2013-05-02T02:00:00Z,30.2791,-87.5561,21.95,1111122 
DISL,ioos:station:DISL:PPTA:1,2013-05-02T02:30:00Z,30.2791,-87.5561,21.95,1111122 
DISL,ioos:station:DISL:PPTA:1,2013-05-02T03:00:00Z,30.2791,-87.5561,21.88,1111122 
DISL,ioos:station:DISL:PPTA:1,2013-05-02T03:30:00Z,30.2791,-87.5561,21.88,1111122 
DISL,ioos:station:DISL:PPTA:1,2013-05-02T04:00:00Z,30.2791,-87.5561,21.88,1111122 
DISL,ioos:station:DISL:PPTA:1,2013-05-02T04:30:00Z,30.2791,-87.5561,21.91,1111122 
DISL,ioos:station:DISL:PPTA:1,2013-05-02T05:00:00Z,30.2791,-87.5561,21.88,1111122 
DISL,ioos:station:DISL:PPTA:1,2013-05-02T05:30:00Z,30.2791,-87.5561,22.05,1111122 
DISL,ioos:station:DISL:PPTA:1,2013-05-02T06:00:00Z,30.2791,-87.5561,21.98,1111122 
DISL,ioos:station:DISL:PPTA:1,2013-05-02T06:30:00Z,30.2791,-87.5561,22.29,1111122 
DISL,ioos:station:DISL:PPTA:1,2013-05-02T07:00:00Z,30.2791,-87.5561,21.71,1111122 
DISL,ioos:station:DISL:PPTA:1,2013-05-02T07:30:00Z,30.2791,-87.5561,21.43,1111122 
DISL,ioos:station:DISL:PPTA:1,2013-05-02T08:00:00Z,30.2791,-87.5561,21.06,1111122 
DISL,ioos:station:DISL:PPTA:1,2013-05-02T08:30:00Z,30.2791,-87.5561,20.82,1111122 
DISL,ioos:station:DISL:PPTA:1,2013-05-02T09:00:00Z,30.2791,-87.5561,20.8,1111122 
DISL,ioos:station:DISL:PPTA:1,2013-05-02T09:30:00Z,30.2791,-87.5561,20.46,1111122 
DISL,ioos:station:DISL:PPTA:1,2013-05-02T10:00:00Z,30.2791,-87.5561,18.55,1111122 
DISL,ioos:station:DISL:PPTA:1,2013-05-02T10:30:00Z,30.2791,-87.5561,17.84,1111122 
DISL,ioos:station:DISL:PPTA:1,2013-05-02T11:00:00Z,30.2791,-87.5561,17.55,1111122 
DISL,ioos:station:DISL:PPTA:1,2013-05-02T11:30:00Z,30.2791,-87.5561,17.82,1111122 
DISL,ioos:station:DISL:PPTA:1,2013-05-02T12:00:00Z,30.2791,-87.5561,17.79,1111122 
DISL,ioos:station:DISL:PPTA:1,2013-05-02T12:30:00Z,30.2791,-87.5561,17.89,1111122 
DISL,ioos:station:DISL:PPTA:1,2013-05-02T13:00:00Z,30.2791,-87.5561,18.06,1111122 
DISL,ioos:station:DISL:PPTA:1,2013-05-02T13:30:00Z,30.2791,-87.5561,18.27,1111122 
DISL,ioos:station:DISL:PPTA:1,2013-05-02T14:00:00Z,30.2791,-87.5561,18.74,1111122 
DISL,ioos:station:DISL:PPTA:1,2013-05-02T14:30:00Z,30.2791,-87.5561,18.95,1111122 
DISL,ioos:station:DISL:PPTA:1,2013-05-02T15:00:00Z,30.2791,-87.5561,19.22,1111122 
DISL,ioos:station:DISL:PPTA:1,2013-05-02T15:30:00Z,30.2791,-87.5561,19.53,1111122 
DISL,ioos:station:DISL:PPTA:1,2013-05-02T16:00:00Z,30.2791,-87.5561,19.75,1111122 
DISL,ioos:station:DISL:PPTA:1,2013-05-02T16:30:00Z,30.2791,-87.5561,20.33,1111122 
DISL,ioos:station:DISL:PPTA:1,2013-05-02T17:00:00Z,30.2791,-87.5561,20.77,1111122 
DISL,ioos:station:DISL:PPTA:1,2013-05-02T17:30:00Z,30.2791,-87.5561,21.17,1111122 
DISL,ioos:station:DISL:PPTA:1,2013-05-02T18:00:00Z,30.2791,-87.5561,21.23,1111122 
DISL,ioos:station:DISL:PPTA:1,2013-05-02T18:30:00Z,30.2791,-87.5561,21.71,1111122 
DISL,ioos:station:DISL:PPTA:1,2013-05-02T19:00:00Z,30.2791,-87.5561,21.77,1111122 
DISL,ioos:station:DISL:PPTA:1,2013-05-02T19:30:00Z,30.2791,-87.5561,22.12,1111122 
DISL,ioos:station:DISL:PPTA:1,2013-05-02T20:00:00Z,30.2791,-87.5561,22.14,1111122 
DISL,ioos:station:DISL:PPTA:1,2013-05-02T20:30:00Z,30.2791,-87.5561,22.1,1111122 
DISL,ioos:station:DISL:PPTA:1,2013-05-02T21:00:00Z,30.2791,-87.5561,22.11,1111122 
DISL,ioos:station:DISL:PPTA:1,2013-05-02T21:30:00Z,30.2791,-87.5561,22.49,1111122 
DISL,ioos:station:DISL:PPTA:1,2013-05-02T22:00:00Z,30.2791,-87.5561,22.45,1111122 
DISL,ioos:station:DISL:PPTA:1,2013-05-02T22:30:00Z,30.2791,-87.5561,22.45,1111122 
DISL,ioos:station:DISL:PPTA:1,2013-05-02T23:00:00Z,30.2791,-87.5561,22.62,1111122 
DISL,ioos:station:DISL:PPTA:1,2013-05-02T23:30:00Z,30.2791,-87.5561,22.51,1111122 
DISL,ioos:station:DISL:PPTA:1,2013-05-03T00:00:00Z,30.2791,-87.5561,22.52,1111122 
DISL,ioos:station:DISL:PPTA:1,2013-05-03T00:30:00Z,30.2791,-87.5561,22.35,1111122 
DISL,ioos:station:DISL:PPTA:1,2013-05-03T01:00:00Z,30.2791,-87.5561,21.6,1111122 
DISL,ioos:station:DISL:PPTA:1,2013-05-03T01:30:00Z,30.2791,-87.5561,20.89,1111122 
DISL,ioos:station:DISL:PPTA:1,2013-05-03T02:00:00Z,30.2791,-87.5561,21.43,1111122 
DISL,ioos:station:DISL:PPTA:1,2013-05-03T02:30:00Z,30.2791,-87.5561,21.5,1111122 
DISL,ioos:station:DISL:PPTA:1,2013-05-03T03:00:00Z,30.2791,-87.5561,21.3,1111122 
DISL,ioos:station:DISL:PPTA:1,2013-05-03T03:30:00Z,30.2791,-87.5561,21.37,1111122 
DISL,ioos:station:DISL:PPTA:1,2013-05-03T04:00:00Z,30.2791,-87.5561,21.37,1111122 
DISL,ioos:station:DISL:PPTA:1,2013-05-03T04:30:00Z,30.2791,-87.5561,21.16,1111122 
DISL,ioos:station:DISL:PPTA:1,2013-05-03T05:00:00Z,30.2791,-87.5561,21.3,1111122 
DISL,ioos:station:DISL:PPTA:1,2013-05-03T05:30:00Z,30.2791,-87.5561,21.23,1111122 
DISL,ioos:station:DISL:PPTA:1,2013-05-03T06:00:00Z,30.2791,-87.5561,21.33,1111122 
DISL,ioos:station:DISL:PPTA:1,2013-05-03T06:30:00Z,30.2791,-87.5561,20.82,1111122 
DISL,ioos:station:DISL:PPTA:1,2013-05-03T07:00:00Z,30.2791,-87.5561,20.73,1111122 
DISL,ioos:station:DISL:PPTA:1,2013-05-03T07:30:00Z,30.2791,-87.5561,20.76,1111122 
DISL,ioos:station:DISL:PPTA:1,2013-05-03T08:00:00Z,30.2791,-87.5561,20.73,1111122 
DISL,ioos:station:DISL:PPTA:1,2013-05-03T08:30:00Z,30.2791,-87.5561,20.93,1111122 
DISL,ioos:station:DISL:PPTA:1,2013-05-03T09:00:00Z,30.2791,-87.5561,20.49,1111122 
DISL,ioos:station:DISL:PPTA:1,2013-05-03T09:30:00Z,30.2791,-87.5561,20.25,1111122 
DISL,ioos:station:DISL:PPTA:1,2013-05-03T10:00:00Z,30.2791,-87.5561,19.88,1111122 
DISL,ioos:station:DISL:PPTA:1,2013-05-03T10:30:00Z,30.2791,-87.5561,19.88,1111122 
DISL,ioos:station:DISL:PPTA:1,2013-05-03T11:00:00Z,30.2791,-87.5561,19.88,1111122 
DISL,ioos:station:DISL:PPTA:1,2013-05-03T11:30:00Z,30.2791,-87.5561,19.92,1111122 
DISL,ioos:station:DISL:PPTA:1,2013-05-03T12:00:00Z,30.2791,-87.5561,19.75,1111122 
DISL,ioos:station:DISL:PPTA:1,2013-05-03T12:30:00Z,30.2791,-87.5561,19.88,1111122 
DISL,ioos:station:DISL:PPTA:1,2013-05-03T13:00:00Z,30.2791,-87.5561,20.23,1111122 
DISL,ioos:station:DISL:PPTA:1,2013-05-03T13:30:00Z,30.2791,-87.5561,20.02,1111122 
DISL,ioos:station:DISL:PPTA:1,2013-05-03T14:00:00Z,30.2791,-87.5561,20.46,1111122 
DISL,ioos:station:DISL:PPTA:1,2013-05-03T14:30:00Z,30.2791,-87.5561,20.36,1111122 
DISL,ioos:station:DISL:PPTA:1,2013-05-03T15:00:00Z,30.2791,-87.5561,21.01,1111122 
DISL,ioos:station:DISL:PPTA:1,2013-05-03T15:30:00Z,30.2791,-87.5561,21.23,1111122 
DISL,ioos:station:DISL:PPTA:1,2013-05-03T16:00:00Z,30.2791,-87.5561,21.02,1111122 
DISL,ioos:station:DISL:PPTA:1,2013-05-03T16:30:00Z,30.2791,-87.5561,20.44,1111122 
DISL,ioos:station:DISL:PPTA:1,2013-05-03T17:00:00Z,30.2791,-87.5561,20.72,1111122 
DISL,ioos:station:DISL:PPTA:1,2013-05-03T17:30:00Z,30.2791,-87.5561,21.13,1111122 
DISL,ioos:station:DISL:PPTA:1,2013-05-03T18:00:00Z,30.2791,-87.5561,21.16,1111122 
DISL,ioos:station:DISL:PPTA:1,2013-05-03T18:30:00Z,30.2791,-87.5561,21.64,1111122 
DISL,ioos:station:DISL:PPTA:1,2013-05-03T19:00:00Z,30.2791,-87.5561,21.81,1111122 
DISL,ioos:station:DISL:PPTA:1,2013-05-03T19:30:00Z,30.2791,-87.5561,21.39,1111122 
DISL,ioos:station:DISL:PPTA:1,2013-05-03T20:00:00Z,30.2791,-87.5561,21.02,1111122 
DISL,ioos:station:DISL:PPTA:1,2013-05-03T20:30:00Z,30.2791,-87.5561,21.37,1111122 
DISL,ioos:station:DISL:PPTA:1,2013-05-03T21:00:00Z,30.2791,-87.5561,20.72,1111122 
DISL,ioos:station:DISL:PPTA:1,2013-05-03T21:30:00Z,30.2791,-87.5561,21.02,1111122 
DISL,ioos:station:DISL:PPTA:1,2013-05-03T22:00:00Z,30.2791,-87.5561,20.38,1111122 
DISL,ioos:station:DISL:PPTA:1,2013-05-03T22:30:00Z,30.2791,-87.5561,20.07,1111122 
DISL,ioos:station:DISL:PPTA:1,2013-05-03T23:00:00Z,30.2791,-87.5561,19.84,1111122 
DISL,ioos:station:DISL:PPTA:1,2013-05-03T23:30:00Z,30.2791,-87.5561,20.16,1111122 
DISL,ioos:station:DISL:PPTA:1,2013-05-04T00:00:00Z,30.2791,-87.5561,19.68,1111122 
DISL,ioos:station:DISL:PPTA:1,2013-05-04T00:30:00Z,30.2791,-87.5561,19.78,1111122 
DISL,ioos:station:DISL:PPTA:1,2013-05-04T01:00:00Z,30.2791,-87.5561,19.44,1111122 
DISL,ioos:station:DISL:PPTA:1,2013-05-04T01:30:00Z,30.2791,-87.5561,19.34,1111122 
DISL,ioos:station:DISL:PPTA:1,2013-05-04T02:00:00Z,30.2791,-87.5561,14.88,1111122 
DISL,ioos:station:DISL:PPTA:1,2013-05-04T02:30:00Z,30.2791,-87.5561,13.97,1111122 
DISL,ioos:station:DISL:PPTA:1,2013-05-04T03:00:00Z,30.2791,-87.5561,13.82,1111122 
DISL,ioos:station:DISL:PPTA:1,2013-05-04T03:30:00Z,30.2791,-87.5561,13.52,1111122 
DISL,ioos:station:DISL:PPTA:1,2013-05-04T04:00:00Z,30.2791,-87.5561,12.53,1111122 
DISL,ioos:station:DISL:PPTA:1,2013-05-04T04:30:00Z,30.2791,-87.5561,12.23,1111122 
DISL,ioos:station:DISL:PPTA:1,2013-05-04T05:00:00Z,30.2791,-87.5561,11.52,1111122 
DISL,ioos:station:DISL:PPTA:1,2013-05-04T05:30:00Z,30.2791,-87.5561,11.08,1111122 
DISL,ioos:station:DISL:PPTA:1,2013-05-04T06:00:00Z,30.2791,-87.5561,10.95,1111122 
DISL,ioos:station:DISL:PPTA:1,2013-05-04T06:30:00Z,30.2791,-87.5561,10.68,1111122 
DISL,ioos:station:DISL:PPTA:1,2013-05-04T07:00:00Z,30.2791,-87.5561,10.44,1111122 
DISL,ioos:station:DISL:PPTA:1,2013-05-04T07:30:00Z,30.2791,-87.5561,10.27,1111122 
DISL,ioos:station:DISL:PPTA:1,2013-05-04T08:00:00Z,30.2791,-87.5561,10.0,1111122 
DISL,ioos:station:DISL:PPTA:1,2013-05-04T08:30:00Z,30.2791,-87.5561,10.14,1111122 
DISL,ioos:station:DISL:PPTA:1,2013-05-04T09:00:00Z,30.2791,-87.5561,9.83,1111122 
DISL,ioos:station:DISL:PPTA:1,2013-05-04T09:30:00Z,30.2791,-87.5561,9.56,1111122 
DISL,ioos:station:DISL:PPTA:1,2013-05-04T10:00:00Z,30.2791,-87.5561,9.67,1111122 
DISL,ioos:station:DISL:PPTA:1,2013-05-04T10:30:00Z,30.2791,-87.5561,9.43,1111122 
DISL,ioos:station:DISL:PPTA:1,2013-05-04T11:00:00Z,30.2791,-87.5561,9.67,1111122 
DISL,ioos:station:DISL:PPTA:1,2013-05-04T11:30:00Z,30.2791,-87.5561,9.73,1111122 
DISL,ioos:station:DISL:PPTA:1,2013-05-04T12:00:00Z,30.2791,-87.5561,10.15,1111122 
DISL,ioos:station:DISL:PPTA:1,2013-05-04T12:30:00Z,30.2791,-87.5561,10.18,1111122 
DISL,ioos:station:DISL:PPTA:1,2013-05-04T13:00:00Z,30.2791,-87.5561,10.58,1111122 
DISL,ioos:station:DISL:PPTA:1,2013-05-04T13:30:00Z,30.2791,-87.5561,11.36,1111122 
DISL,ioos:station:DISL:PPTA:1,2013-05-04T14:00:00Z,30.2791,-87.5561,12.27,1111122 
DISL,ioos:station:DISL:PPTA:1,2013-05-04T14:30:00Z,30.2791,-87.5561,12.8,1111122 
DISL,ioos:station:DISL:PPTA:1,2013-05-04T15:00:00Z,30.2791,-87.5561,13.76,1111122 
DISL,ioos:station:DISL:PPTA:1,2013-05-04T15:30:00Z,30.2791,-87.5561,14.43,1111122 
DISL,ioos:station:DISL:PPTA:1,2013-05-04T16:00:00Z,30.2791,-87.5561,15.07,1111122 
DISL,ioos:station:DISL:PPTA:1,2013-05-04T16:30:00Z,30.2791,-87.5561,15.47,1111122 
DISL,ioos:station:DISL:PPTA:1,2013-05-04T17:00:00Z,30.2791,-87.5561,16.01,1111122 
DISL,ioos:station:DISL:PPTA:1,2013-05-04T17:30:00Z,30.2791,-87.5561,16.39,1111122 
DISL,ioos:station:DISL:PPTA:1,2013-05-04T18:00:00Z,30.2791,-87.5561,17.0,1111122 
DISL,ioos:station:DISL:PPTA:1,2013-05-04T18:30:00Z,30.2791,-87.5561,17.24,1111122 
DISL,ioos:station:DISL:PPTA:1,2013-05-04T19:00:00Z,30.2791,-87.5561,17.89,1111122 
DISL,ioos:station:DISL:PPTA:1,2013-05-04T19:30:00Z,30.2791,-87.5561,18.33,1111122 
DISL,ioos:station:DISL:PPTA:1,2013-05-04T20:00:00Z,30.2791,-87.5561,18.6,1111122 
DISL,ioos:station:DISL:PPTA:1,2013-05-04T20:30:00Z,30.2791,-87.5561,18.87,1111122 
DISL,ioos:station:DISL:PPTA:1,2013-05-04T21:00:00Z,30.2791,-87.5561,19.27,1111122 
DISL,ioos:station:DISL:PPTA:1,2013-05-04T21:30:00Z,30.2791,-87.5561,19.34,1111122 
DISL,ioos:station:DISL:PPTA:1,2013-05-04T22:00:00Z,30.2791,-87.5561,19.44,1111122 
DISL,ioos:station:DISL:PPTA:1,2013-05-04T22:30:00Z,30.2791,-87.5561,19.71,1111122 
DISL,ioos:station:DISL:PPTA:1,2013-05-04T23:00:00Z,30.2791,-87.5561,19.75,1111122 
DISL,ioos:station:DISL:PPTA:1,2013-05-04T23:30:00Z,30.2791,-87.5561,19.61,1111122 
DISL,ioos:station:DISL:PPTA:1,2013-05-05T00:00:00Z,30.2791,-87.5561,19.31,1111122 
DISL,ioos:station:DISL:PPTA:1,2013-05-05T00:30:00Z,30.2791,-87.5561,18.57,1111122 
DISL,ioos:station:DISL:PPTA:1,2013-05-05T01:00:00Z,30.2791,-87.5561,17.99,1111122 
DISL,ioos:station:DISL:PPTA:1,2013-05-05T01:30:00Z,30.2791,-87.5561,17.35,1111122 
DISL,ioos:station:DISL:PPTA:1,2013-05-05T02:00:00Z,30.2791,-87.5561,17.23,1111122 
DISL,ioos:station:DISL:PPTA:1,2013-05-05T02:30:00Z,30.2791,-87.5561,16.61,1111122 
DISL,ioos:station:DISL:PPTA:1,2013-05-05T03:00:00Z,30.2791,-87.5561,16.25,1111122 
DISL,ioos:station:DISL:PPTA:1,2013-05-05T03:30:00Z,30.2791,-87.5561,16.19,1111122 
DISL,ioos:station:DISL:PPTA:1,2013-05-05T04:00:00Z,30.2791,-87.5561,15.06,1111122 
DISL,ioos:station:DISL:PPTA:1,2013-05-05T04:30:00Z,30.2791,-87.5561,15.17,1111122 
DISL,ioos:station:DISL:PPTA:1,2013-05-05T05:00:00Z,30.2791,-87.5561,15.24,1111122 
DISL,ioos:station:DISL:PPTA:1,2013-05-05T05:30:00Z,30.2791,-87.5561,14.94,1111122 
DISL,ioos:station:DISL:PPTA:1,2013-05-05T06:00:00Z,30.2791,-87.5561,15.35,1111122 
DISL,ioos:station:DISL:PPTA:1,2013-05-05T06:30:00Z,30.2791,-87.5561,14.77,1111122 
DISL,ioos:station:DISL:PPTA:1,2013-05-05T07:00:00Z,30.2791,-87.5561,14.46,1111122 
DISL,ioos:station:DISL:PPTA:1,2013-05-05T07:30:00Z,30.2791,-87.5561,14.15,1111122 
DISL,ioos:station:DISL:PPTA:1,2013-05-05T08:00:00Z,30.2791,-87.5561,14.94,1111122 
DISL,ioos:station:DISL:PPTA:1,2013-05-05T08:30:00Z,30.2791,-87.5561,15.04,1111122 
DISL,ioos:station:DISL:PPTA:1,2013-05-05T09:00:00Z,30.2791,-87.5561,15.38,1111122 
DISL,ioos:station:DISL:PPTA:1,2013-05-05T09:30:00Z,30.2791,-87.5561,15.35,1111122 
DISL,ioos:station:DISL:PPTA:1,2013-05-05T10:00:00Z,30.2791,-87.5561,14.9,1111122 
DISL,ioos:station:DISL:PPTA:1,2013-05-05T10:30:00Z,30.2791,-87.5561,15.49,1111122 
DISL,ioos:station:DISL:PPTA:1,2013-05-05T11:00:00Z,30.2791,-87.5561,16.24,1111122 
DISL,ioos:station:DISL:PPTA:1,2013-05-05T11:30:00Z,30.2791,-87.5561,17.91,1111122 
DISL,ioos:station:DISL:PPTA:1,2013-05-05T12:00:00Z,30.2791,-87.5561,19.3,1111122 
DISL,ioos:station:DISL:PPTA:1,2013-05-05T12:30:00Z,30.2791,-87.5561,19.72,1111122 
DISL,ioos:station:DISL:PPTA:1,2013-05-05T13:00:00Z,30.2791,-87.5561,20.01,1111122 
DISL,ioos:station:DISL:PPTA:1,2013-05-05T13:30:00Z,30.2791,-87.5561,19.99,1111122 
DISL,ioos:station:DISL:PPTA:1,2013-05-05T14:00:00Z,30.2791,-87.5561,19.68,1111122 
DISL,ioos:station:DISL:PPTA:1,2013-05-05T14:30:00Z,30.2791,-87.5561,19.74,1111122 
DISL,ioos:station:DISL:PPTA:1,2013-05-05T15:00:00Z,30.2791,-87.5561,20.03,1111122 
DISL,ioos:station:DISL:PPTA:1,2013-05-05T15:30:00Z,30.2791,-87.5561,19.47,1111122 
DISL,ioos:station:DISL:PPTA:1,2013-05-05T16:00:00Z,30.2791,-87.5561,19.74,1111122 
DISL,ioos:station:DISL:PPTA:1,2013-05-05T16:30:00Z,30.2791,-87.5561,19.54,1111122 
DISL,ioos:station:DISL:PPTA:1,2013-05-05T17:00:00Z,30.2791,-87.5561,19.67,1111122 
DISL,ioos:station:DISL:PPTA:1,2013-05-05T17:30:00Z,30.2791,-87.5561,20.08,1111122 
DISL,ioos:station:DISL:PPTA:1,2013-05-05T18:00:00Z,30.2791,-87.5561,19.91,1111122 
DISL,ioos:station:DISL:PPTA:1,2013-05-05T18:30:00Z,30.2791,-87.5561,19.57,1111122 
DISL,ioos:station:DISL:PPTA:1,2013-05-05T19:00:00Z,30.2791,-87.5561,19.67,1111122 
DISL,ioos:station:DISL:PPTA:1,2013-05-05T19:30:00Z,30.2791,-87.5561,19.16,1111122 
DISL,ioos:station:DISL:PPTA:1,2013-05-05T20:00:00Z,30.2791,-87.5561,19.31,1111122 
DISL,ioos:station:DISL:PPTA:1,2013-05-05T20:30:00Z,30.2791,-87.5561,19.18,1111122 
DISL,ioos:station:DISL:PPTA:1,2013-05-05T21:00:00Z,30.2791,-87.5561,18.84,1111122 
DISL,ioos:station:DISL:PPTA:1,2013-05-05T21:30:00Z,30.2791,-87.5561,18.55,1111122 
DISL,ioos:station:DISL:PPTA:1,2013-05-05T22:00:00Z,30.2791,-87.5561,18.25,1111122 
DISL,ioos:station:DISL:PPTA:1,2013-05-05T22:30:00Z,30.2791,-87.5561,18.06,1111122 
DISL,ioos:station:DISL:PPTA:1,2013-05-05T23:00:00Z,30.2791,-87.5561,17.96,1111122 
DISL,ioos:station:DISL:PPTA:1,2013-05-05T23:30:00Z,30.2791,-87.5561,17.38,1111122 
DISL,ioos:station:DISL:PPTA:1,2013-05-06T00:00:00Z,30.2791,-87.5561,17.07,1111122 
DISL,ioos:station:DISL:PPTA:1,2013-05-06T00:30:00Z,30.2791,-87.5561,16.26,1111122 
DISL,ioos:station:DISL:PPTA:1,2013-05-06T01:00:00Z,30.2791,-87.5561,15.82,1111122 
DISL,ioos:station:DISL:PPTA:1,2013-05-06T01:30:00Z,30.2791,-87.5561,15.18,1111122 
DISL,ioos:station:DISL:PPTA:1,2013-05-06T02:00:00Z,30.2791,-87.5561,14.91,1111122 
DISL,ioos:station:DISL:PPTA:1,2013-05-06T02:30:00Z,30.2791,-87.5561,14.72,1111122 
DISL,ioos:station:DISL:PPTA:1,2013-05-06T03:00:00Z,30.2791,-87.5561,14.37,1111122 
DISL,ioos:station:DISL:PPTA:1,2013-05-06T03:30:00Z,30.2791,-87.5561,14.07,1111122 
DISL,ioos:station:DISL:PPTA:1,2013-05-06T04:00:00Z,30.2791,-87.5561,13.87,1111122 
DISL,ioos:station:DISL:PPTA:1,2013-05-06T04:30:00Z,30.2791,-87.5561,13.63,1111122 
DISL,ioos:station:DISL:PPTA:1,2013-05-06T05:00:00Z,30.2791,-87.5561,13.23,1111122 
DISL,ioos:station:DISL:PPTA:1,2013-05-06T05:30:00Z,30.2791,-87.5561,13.16,1111122 
DISL,ioos:station:DISL:PPTA:1,2013-05-06T06:00:00Z,30.2791,-87.5561,12.92,1111122 
DISL,ioos:station:DISL:PPTA:1,2013-05-06T06:30:00Z,30.2791,-87.5561,12.75,1111122 
DISL,ioos:station:DISL:PPTA:1,2013-05-06T07:00:00Z,30.2791,-87.5561,12.55,1111122 
DISL,ioos:station:DISL:PPTA:1,2013-05-06T07:30:00Z,30.2791,-87.5561,12.45,1111122 
DISL,ioos:station:DISL:PPTA:1,2013-05-06T08:00:00Z,30.2791,-87.5561,11.81,1111122 
DISL,ioos:station:DISL:PPTA:1,2013-05-06T08:30:00Z,30.2791,-87.5561,11.71,1111122 
DISL,ioos:station:DISL:PPTA:1,2013-05-06T09:00:00Z,30.2791,-87.5561,11.95,1111122 
DISL,ioos:station:DISL:PPTA:1,2013-05-06T09:30:00Z,30.2791,-87.5561,12.09,1111122 
DISL,ioos:station:DISL:PPTA:1,2013-05-06T10:00:00Z,30.2791,-87.5561,12.26,1111122 
DISL,ioos:station:DISL:PPTA:1,2013-05-06T10:30:00Z,30.2791,-87.5561,12.22,1111122 
DISL,ioos:station:DISL:PPTA:1,2013-05-06T11:00:00Z,30.2791,-87.5561,12.05,1111122 
DISL,ioos:station:DISL:PPTA:1,2013-05-06T11:30:00Z,30.2791,-87.5561,12.39,1111122 
DISL,ioos:station:DISL:PPTA:1,2013-05-06T12:00:00Z,30.2791,-87.5561,12.87,1111122 
DISL,ioos:station:DISL:PPTA:1,2013-05-06T12:30:00Z,30.2791,-87.5561,14.24,1111122 
DISL,ioos:station:DISL:PPTA:1,2013-05-06T13:00:00Z,30.2791,-87.5561,14.84,1111122 
DISL,ioos:station:DISL:PPTA:1,2013-05-06T13:30:00Z,30.2791,-87.5561,16.15,1111122 
DISL,ioos:station:DISL:PPTA:1,2013-05-06T14:00:00Z,30.2791,-87.5561,16.82,1111122 
DISL,ioos:station:DISL:PPTA:1,2013-05-06T14:30:00Z,30.2791,-87.5561,17.08,1111122 
DISL,ioos:station:DISL:PPTA:1,2013-05-06T15:00:00Z,30.2791,-87.5561,17.32,1111122 
DISL,ioos:station:DISL:PPTA:1,2013-05-06T15:30:00Z,30.2791,-87.5561,17.51,1111122 
DISL,ioos:station:DISL:PPTA:1,2013-05-06T16:00:00Z,30.2791,-87.5561,18.05,1111122 
DISL,ioos:station:DISL:PPTA:1,2013-05-06T16:30:00Z,30.2791,-87.5561,18.5,1111122 
DISL,ioos:station:DISL:PPTA:1,2013-05-06T17:00:00Z,30.2791,-87.5561,18.7,1111122 
DISL,ioos:station:DISL:PPTA:1,2013-05-06T17:30:00Z,30.2791,-87.5561,18.7,1111122 
DISL,ioos:station:DISL:PPTA:1,2013-05-06T18:00:00Z,30.2791,-87.5561,19.27,1111122 
DISL,ioos:station:DISL:PPTA:1,2013-05-06T18:30:00Z,30.2791,-87.5561,18.89,1111122 
DISL,ioos:station:DISL:PPTA:1,2013-05-06T19:00:00Z,30.2791,-87.5561,19.91,1111122 
DISL,ioos:station:DISL:PPTA:1,2013-05-06T19:30:00Z,30.2791,-87.5561,19.5,1111122 
DISL,ioos:station:DISL:PPTA:1,2013-05-06T20:00:00Z,30.2791,-87.5561,19.88,1111122 
DISL,ioos:station:DISL:PPTA:1,2013-05-06T20:30:00Z,30.2791,-87.5561,19.6,1111122 
DISL,ioos:station:DISL:PPTA:1,2013-05-06T21:00:00Z,30.2791,-87.5561,19.81,1111122 
DISL,ioos:station:DISL:PPTA:1,2013-05-06T21:30:00Z,30.2791,-87.5561,20.0,1111122 
DISL,ioos:station:DISL:PPTA:1,2013-05-06T22:00:00Z,30.2791,-87.5561,19.8,1111122 
DISL,ioos:station:DISL:PPTA:1,2013-05-06T22:30:00Z,30.2791,-87.5561,19.22,1111122 
DISL,ioos:station:DISL:PPTA:1,2013-05-06T23:00:00Z,30.2791,-87.5561,19.45,1111122 
DISL,ioos:station:DISL:PPTA:1,2013-05-06T23:30:00Z,30.2791,-87.5561,19.39,1111122 